DELTA 1 DEB, 2888

Orbit data source: Space-Track

DELTA 1 DEB, 2888 is space debris in LEO originally from a launch on Sat, 06 Nov 1965 UTC launched from the Air Force Eastern Test Range (AFETR). Debris objects in space refer to the collection of defunct objects orbiting the Earth. Examples of debris include non-operational satellites, rocket bodies, and fragments generated from explosions, collisions, or faulty payload assembly.

Loading next visibility...
Identifier
2888, 1965-089D
Orbit
LEO
Country
Flag of USUS
Related business
Manufacturer
Unknown
Mission
Spacecraft
Bus & Motor
Unknown
Mass
Unknown
Launch date (UTC)
1965-11-06 (60 years ago)
Launch vehicle
Unknown
Launch site
Air Force Eastern Test Range (AFETR)
Object type
Payload
Rocket body
Debris
Shape & HBR
Unknown shape, 0.1 m
Radar Cross Section
Small (<0.1 m²)

Expand to show TLE details & history
Last TLE update: 19 hours ago

TLE from 19 hours ago
0 DELTA 1 DEB
1 02888U 65089D   25350.40581561 -.00000109  00000-0 -24607-3 0  9993
2 02888  59.2021  38.4269 0721360 131.9354 338.2267 11.87424422552787
Epoch: 2025-12-16T09:44Z
TLE epoch observation values (Epoch: 2025-12-16T09:44:22.468Z)
Latitude
55.43894°
Longitude
-72.37211°
Altitude
1,208.171 km
Speed
7.492 km/s
True Right ascension
10h 36m 02s
True Declination
55° 17' 16"
Sunlit
Object was in daylight at epoch
Visualization orbit readout
Latitude
Unknown
Longitude
Unknown
Altitude
Unknown
Speed
Unknown
Apparent Right ascension
Unknown
Apparent Declination
Unknown
Sunlit
N/A
Visualization observer readout
Local Sidereal Time
03:46:11
Azimuth
Unknown
Elevation
Unknown
Doppler factor
Unknown
Orbital elements
Apogee altitude
2,322.481 km
Perigee altitude
1,151.682 km
Semi-major axis
8,115.218 km
Eccentricity
0.07214
Inclination
59.2021°
RAAN
38.4269°
Arg. of periapsis
131.9354°
True anomaly
334.88332°
Mean anomaly
338.2267°
Eccentric anomaly
336.58421°
Mean motion
2.96888 °/min
Orbital period
121.26 mins
BSTAR
-0.00024607
Loading maneuver chart data...
Computing Atmospheric mass density...
Loading historical data...
Loading historical data...
Loading historical data...
Loading historical data...
Loading historical data...
Loading historical data...
Loading historical data...

Documentation

Showing up to 5 results
|